EUTELSAT 117 WEST B (41589 NORAD) Tracking and Keplerian Element Data

This shows tracking and keplerian element data for the satellite.

Feedback or suggestion? Click here.




ElementValue
Catalog41589
NameEUTELSAT 117 WEST B
Epoch Orbit892
Epoch Day319.17442637
Epoch Year2018
RAAN160.1539
Inclination0.0075
Eccentricity3.78E-05
Argument of Perigee127.0116
Mean Anonmoly72.8594
Mean Motion1.00273288
Decay Rate-1E-07
L11 41589U 16038B 18319.17442637 -.00000010 00000-0 00000+0 0 9992
L22 41589 0.0075 160.1539 0000378 127.0116 72.8594 1.00273288 8927

Live tracking and technical data element details for EUTELSAT 117 WEST B (NORAD 41589). EUTELSAT 117 WEST B can be tracked NOW for your location showing map with azimuth and elevation plus other details from your city location.

Track the satellite on the map from your city or location and see movement details for azimuth, elevation, latitude, longitude, range, height, and movement on the map or in text.







IsCatalogInMostPopularTable: catalog: 41589, numindb: 135
Update: records affected: 1



GetName: 41589 EUTELSAT 117 WEST B

Hit Count: updated at: Fri, 16 Nov 2018 11:47:31 GMT